Regional Weather Roundup
Issued by NWS

Home | Current Version | Previous Version | Graphics & Text | Print | Product List | Glossary On
Versions: 1 2 3 4 5 6 7 8 9 10 11 12 13 14 15 16 17 18 19 20 21 22 23 24 25 26 27 28 29 30 31 32 33 34 35 36 37 38 39 40 41 42 43 44 45 46 47 48 49 50
057
ASUS43 KIND 232259
RWRIN

WEATHER ROUNDUP FOR INDIANA
NATIONAL WEATHER SERVICE INDIANAPOLIS IN
700 PM EDT MON MAY 23 2016

NOTE: "FAIR" INDICATES FEW OR NO CLOUDS BELOW 12,000 FEET WITH NO
SIGNIFICANT WEATHER AND/OR OBSTRUCTIONS TO VISIBILITY.

* - STATION DOES NOT REPORT WEATHER SUCH AS PRECIPITATION OR FOG.

+ - STATION NOT QUALITY CONTROLLED BY THE NATIONAL WEATHER SERVICE.
    USE DATA WITH CAUTION...ESPECIALLY DEWPOINT AND RELATIVE
    HUMIDITY OBSERVATIONS.

INZ001>003-010>013-019-020-240000-
NORTHWEST INDIANA

CITY           SKY/WX    TMP DP  RH WIND       PRES   REMARKS
GARY /AIRPORT/ MOSUNNY   79  52  38 E6        29.94F
RENSSELAER +   SUNNY     81  30  16 S8        29.95F

$$

LMZ046-743>745-240000-
SOUTHERN LAKE MICHIGAN

STATION/POSITION TIME  TEMP    WIND        PRES    WAVE
                       AIR SEA DIR/SP/G            HT
                 (UTC) (F)     (DEG/KT/KT) (MB)    (FT)
BURNS HARBOR     2200   67      40/  5/  7 1014.6S
MICHIGAN CITY    2200   65      20/  8/  9   N/A
5NW MICH CITY    2200   63 59   50/  6/ 10   N/A     0

$$

INZ004-005-014>016-021>024-240000-
NORTH CENTRAL INDIANA

CITY           SKY/WX    TMP DP  RH WIND       PRES   REMARKS
ELKHART        SUNNY     77  45  31 S7        29.98S
GOSHEN         SUNNY     76  30  18 S8        29.97F
SOUTH BEND     SUNNY     77  33  20 S9        29.97S

$$

INZ006>009-017-018-025>027-240000-
NORTHEAST INDIANA

CITY           SKY/WX    TMP DP  RH WIND       PRES   REMARKS
ANGOLA *+      SUNNY     73  34  23 SE5       29.98F
FORT WAYNE     SUNNY     76  34  21 SE5       29.99F

$$

INZ028-029-035-036-043>045-051>053-240000-
WEST CENTRAL INDIANA

CITY           SKY/WX    TMP DP  RH WIND       PRES   REMARKS
CRAWFORDSVL +  SUNNY     76  40  26 SE7       29.97F
GREENCASTLE +  SUNNY     75  50  41 S3        29.98F
LAFAYETTE      SUNNY     77  38  24 SE7       29.95F
TERRE HAUTE    SUNNY     78  45  30 S9        29.96F

$$

INZ030>032-037>040-046>048-054>057-064-065-240000-
CENTRAL INDIANA

CITY           SKY/WX    TMP DP  RH WIND       PRES   REMARKS
COLUMBUS       SUNNY     77  36  22 SW3       29.99S
INDIANAPOLIS   SUNNY     76  38  25 SE6       29.98S
-EAGLE CREEK   SUNNY     77  33  20 S6        29.98S
KOKOMO *+      SUNNY     75  37  25 S6        29.97F
SHELBYVILLE    SUNNY     78  37  22 SW5       29.98S

$$

INZ033-034-041-042-049-050-058-059-240000-
EAST CENTRAL INDIANA

CITY           SKY/WX    TMP DP  RH WIND       PRES   REMARKS
MUNCIE         SUNNY     78  37  22 S6        29.98F

$$

INZ060-061-067>069-081>083-085>088-240000-
SOUTHWEST INDIANA

CITY           SKY/WX    TMP DP  RH WIND       PRES   REMARKS
EVANSVILLE     SUNNY     80  42  25 E3        29.96F
HUNTINGBURG *+ SUNNY     79  45  29 SE3       29.97F

$$

INZ062-063-066-070>080-084-089>092-240000-
SOUTH CENTRAL AND SOUTHEAST INDIANA

CITY           SKY/WX    TMP DP  RH WIND       PRES   REMARKS
BLOOMINGTON    SUNNY     77  42  28 SE6       29.98F
MADISON *+     SUNNY     77  39  25 CALM      30.02S
SEYMOUR +      SUNNY     79  45  29 SE6       29.99S

$$





USA.gov is the U.S. government's official web portal to all federal, state and local government web resources and services.